EN

Hourly Weather Tomkowice

Today, 19 April, Monday

Time Temperature Precipitation Wind Pressure Humidity
00:00 +5°C° 0 mm 1 mps 742 mmHg 91%
01:00 +4°C° 0 mm 0 mps 742 mmHg 91%
02:00 +6°C° 0 mm 1 mps 742 mmHg 89%
03:00 +6°C° 0 mm 1 mps 742 mmHg 88%
04:00 +6°C° 0 mm 1 mps 742 mmHg 86%
05:00 +7°C° 0 mm 1 mps 742 mmHg 85%
06:00 +7°C° 0 mm 1 mps 742 mmHg 84%
07:00 +7°C° 0 mm 1 mps 742 mmHg 83%
08:00 +8°C° 0.3 mm 1 mps 742 mmHg 84%
09:00 +7°C° 0.3 mm 2 mps 742 mmHg 86%
10:00 +7°C° 0.3 mm 2 mps 742 mmHg 87%
11:00 +7°C° 0.4 mm 2 mps 741 mmHg 87%
12:00 +8°C° 0.4 mm 2 mps 741 mmHg 86%
13:00 +8°C° 0.4 mm 3 mps 741 mmHg 85%
14:00 +9°C° 0.1 mm 2 mps 741 mmHg 83%
15:00 +9°C° 0.1 mm 2 mps 741 mmHg 82%
16:00 +10°C° 0.1 mm 2 mps 740 mmHg 80%
17:00 +9°C° 0.1 mm 2 mps 740 mmHg 84%
18:00 +9°C° 0.1 mm 1 mps 740 mmHg 87%
19:00 +8°C° 0.1 mm 1 mps 740 mmHg 90%
20:00 +8°C° 0 mm 1 mps 740 mmHg 91%
21:00 +8°C° 0 mm 1 mps 740 mmHg 91%
22:00 +7°C° 0 mm 1 mps 740 mmHg 91%
23:00 +7°C° 0 mm 1 mps 740 mmHg 91%

Tomorrow, 20 April, Tuesday

Time Temperature Precipitation Wind Pressure Humidity
00:00 +6°C° 0 mm 0 mps 740 mmHg 91%
01:00 +6°C° 0 mm 0 mps 740 mmHg 91%
02:00 +6°C° 0 mm 0 mps 740 mmHg 91%
03:00 +6°C° 0 mm 0 mps 740 mmHg 91%
04:00 +6°C° 0 mm 0 mps 740 mmHg 91%
05:00 +7°C° 0.1 mm 0 mps 740 mmHg 87%
06:00 +9°C° 0.1 mm 1 mps 740 mmHg 83%
07:00 +10°C° 0.1 mm 1 mps 740 mmHg 79%
08:00 +11°C° 0.1 mm 1 mps 740 mmHg 71%
09:00 +12°C° 0.1 mm 2 mps 740 mmHg 63%
10:00 +13°C° 0.1 mm 2 mps 740 mmHg 56%
11:00 +13°C° 0.1 mm 2 mps 740 mmHg 55%
12:00 +14°C° 0.1 mm 2 mps 740 mmHg 54%
13:00 +14°C° 0.1 mm 2 mps 739 mmHg 53%
14:00 +14°C° 0.1 mm 2 mps 739 mmHg 56%
15:00 +14°C° 0.1 mm 2 mps 739 mmHg 58%
16:00 +14°C° 0.1 mm 2 mps 739 mmHg 61%
17:00 +12°C° 0.1 mm 2 mps 739 mmHg 67%
18:00 +11°C° 0.1 mm 1 mps 739 mmHg 73%
19:00 +9°C° 0.1 mm 1 mps 739 mmHg 79%
20:00 +9°C° 0.1 mm 1 mps 739 mmHg 81%
21:00 +8°C° 0.1 mm 1 mps 739 mmHg 83%
22:00 +8°C° 0.1 mm 1 mps 739 mmHg 85%
23:00 +8°C° 0 mm 1 mps 739 mmHg 85%

Day after tomorrow, 21 April, Wednesday

Time Temperature Precipitation Wind Pressure Humidity
00:00 +7°C° 0 mm 1 mps 739 mmHg 84%
01:00 +7°C° 0 mm 1 mps 738 mmHg 83%
02:00 +7°C° 0 mm 1 mps 738 mmHg 83%
03:00 +6°C° 0 mm 2 mps 738 mmHg 82%
04:00 +5°C° 0 mm 2 mps 738 mmHg 82%
05:00 +6°C° 0 mm 2 mps 738 mmHg 80%
06:00 +7°C° 0 mm 2 mps 738 mmHg 77%
07:00 +8°C° 0 mm 2 mps 738 mmHg 75%
08:00 +9°C° 0.1 mm 2 mps 738 mmHg 75%
09:00 +10°C° 0.1 mm 3 mps 738 mmHg 75%
10:00 +11°C° 0.1 mm 4 mps 738 mmHg 76%
11:00 +12°C° 0.3 mm 4 mps 738 mmHg 70%
12:00 +13°C° 0.3 mm 5 mps 738 mmHg 64%
13:00 +13°C° 0.3 mm 5 mps 738 mmHg 59%
14:00 +13°C° 0 mm 5 mps 738 mmHg 57%
15:00 +13°C° 0 mm 5 mps 737 mmHg 56%
16:00 +13°C° 0 mm 5 mps 737 mmHg 54%
17:00 +12°C° 0 mm 4 mps 737 mmHg 58%
18:00 +10°C° 0 mm 4 mps 738 mmHg 63%
19:00 +9°C° 0 mm 3 mps 738 mmHg 67%
20:00 +8°C° 0 mm 3 mps 738 mmHg 74%
21:00 +8°C° 0 mm 2 mps 738 mmHg 81%
22:00 +7°C° 0 mm 2 mps 739 mmHg 88%
23:00 +7°C° 0.1 mm 3 mps 739 mmHg 88%

22 April, Thursday

Time Temperature Precipitation Wind Pressure Humidity
00:00 +5°C° 0.1 mm 3 mps 739 mmHg 87%
01:00 +5°C° 0.1 mm 3 mps 739 mmHg 87%
02:00 +4°C° 0 mm 4 mps 739 mmHg 86%
03:00 +3°C° 0 mm 4 mps 739 mmHg 85%
04:00 +3°C° 0 mm 4 mps 739 mmHg 84%
05:00 +1°C° 0 mm 4 mps 740 mmHg 79%
06:00 +1°C° 0 mm 4 mps 740 mmHg 74%
07:00 +1°C° 0 mm 5 mps 740 mmHg 69%
08:00 +2°C° 0 mm 5 mps 740 mmHg 62%
09:00 +3°C° 0 mm 5 mps 740 mmHg 55%
10:00 +5°C° 0 mm 6 mps 740 mmHg 49%
11:00 +5°C° 0 mm 6 mps 740 mmHg 48%
12:00 +7°C° 0 mm 6 mps 740 mmHg 47%
13:00 +6°C° 0 mm 7 mps 740 mmHg 46%
14:00 +6°C° 0 mm 7 mps 740 mmHg 50%
15:00 +7°C° 0 mm 6 mps 740 mmHg 53%
16:00 +5°C° 0 mm 6 mps 740 mmHg 57%
17:00 +4°C° 0 mm 6 mps 740 mmHg 62%
18:00 +3°C° 0 mm 5 mps 740 mmHg 68%
19:00 +3°C° 0 mm 4 mps 741 mmHg 73%
20:00 +3°C° 0 mm 4 mps 741 mmHg 74%
21:00 +1°C° 0 mm 4 mps 741 mmHg 76%
22:00 +1°C° 0 mm 4 mps 742 mmHg 77%
23:00 +1°C° 0 mm 4 mps 742 mmHg 78%

23 April, Friday

Time Temperature Precipitation Wind Pressure Humidity
00:00 0°C° 0 mm 4 mps 742 mmHg 79%
01:00 0°C° 0 mm 4 mps 742 mmHg 79%
02:00 0°C° 0 mm 4 mps 742 mmHg 81%
03:00 0°C° 0 mm 4 mps 742 mmHg 82%
04:00 -1°C° 0 mm 4 mps 743 mmHg 84%
05:00 0°C° 0 mm 5 mps 743 mmHg 81%
06:00 +1°C° 0 mm 5 mps 743 mmHg 77%
07:00 +2°C° 0 mm 5 mps 744 mmHg 74%
08:00 +3°C° 0 mm 5 mps 744 mmHg 68%
09:00 +5°C° 0 mm 5 mps 744 mmHg 62%
10:00 +7°C° 0 mm 5 mps 744 mmHg 56%
11:00 +7°C° 0 mm 5 mps 744 mmHg 53%
12:00 +8°C° 0 mm 5 mps 744 mmHg 50%
13:00 +8°C° 0 mm 5 mps 744 mmHg 48%
14:00 +8°C° 0 mm 5 mps 744 mmHg 48%
15:00 +9°C° 0 mm 5 mps 744 mmHg 48%
16:00 +9°C° 0 mm 5 mps 744 mmHg 48%
17:00 +7°C° 0 mm 4 mps 744 mmHg 56%
18:00 +6°C° 0 mm 4 mps 744 mmHg 64%
19:00 +4°C° 0 mm 4 mps 745 mmHg 73%
20:00 +4°C° 0 mm 3 mps 745 mmHg 76%
21:00 +3°C° 0 mm 3 mps 745 mmHg 79%
22:00 +2°C° 0 mm 3 mps 745 mmHg 82%
23:00 +2°C° 0 mm 3 mps 744 mmHg 82%

24 April, Saturday

Time Temperature Precipitation Wind Pressure Humidity
00:00 +2°C° 0 mm 3 mps 744 mmHg 81%
01:00 +2°C° 0 mm 3 mps 744 mmHg 80%
02:00 +2°C° 0 mm 3 mps 744 mmHg 81%
03:00 +2°C° 0 mm 3 mps 744 mmHg 82%
04:00 +1°C° 0 mm 3 mps 744 mmHg 83%
05:00 +3°C° 0 mm 3 mps 744 mmHg 80%
06:00 +4°C° 0 mm 4 mps 744 mmHg 76%
07:00 +5°C° 0 mm 4 mps 744 mmHg 73%
08:00 +6°C° 0 mm 5 mps 743 mmHg 66%
09:00 +7°C° 0 mm 5 mps 743 mmHg 59%
10:00 +9°C° 0 mm 5 mps 743 mmHg 52%
11:00 +9°C° 0 mm 6 mps 743 mmHg 52%
12:00 +9°C° 0 mm 6 mps 743 mmHg 53%
13:00 +10°C° 0 mm 6 mps 743 mmHg 53%
14:00 +9°C° 0 mm 5 mps 743 mmHg 57%
15:00 +8°C° 0 mm 5 mps 743 mmHg 62%
16:00 +7°C° 0 mm 5 mps 743 mmHg 66%
17:00 +6°C° 0 mm 4 mps 743 mmHg 73%
18:00 +5°C° 0 mm 3 mps 744 mmHg 80%
19:00 +4°C° 0 mm 3 mps 744 mmHg 86%
20:00 +4°C° 0 mm 2 mps 744 mmHg 88%
21:00 +3°C° 0 mm 2 mps 745 mmHg 90%
22:00 +2°C° 0 mm 2 mps 745 mmHg 91%
23:00 +2°C° 0 mm 2 mps 745 mmHg 92%
Show more

We Need Your Consent

Meteoprog and our Service Providers may store and access personal data such as cookies, device identifiers or other similar technologies on your device and process such data to personalise content and ads, as well as provide social media features and to analyse the traffic.

  • Store and/or access information on your device

    Cookies, device identifiers or other information can be stored or accessed on your device for the purposes indicated above.

  • Personalised ads and content, ad and content measurement, audience insights, and products development

    Ads and content can be personalised based on a profile. More data can be added to better personalise ads and content. Ad and content performance can be measured. Insights about the audience who saw the ads and content can be derived. Such data can be used to develop or improve user’s experience, systems and software.

By clicking ‘I Agree’ you will allow the use of indicated cookies, device identifiers, web beacons or other similar technologies. Your settings can be changed in the browser on your device.

For certain purposes, legitimate interests may be relied on, rather than consent. You can read more about this in our Privacy and Cookie Policy.